Regional Weather Roundup
Issued by NWS

Home | Current Version | Previous Version | Text Only | Print | Product List | Glossary Off
Versions: 1 2 3 4 5 6 7 8 9 10 11 12 13 14 15 16 17 18 19 20 21 22 23 24 25 26 27 28 29 30 31 32 33 34 35 36 37 38 39 40 41 42 43 44 45 46 47 48 49

000
ASUS45 KBOU 231207
RWRCO

WEATHER ROUNDUP FOR COLORADO
NATIONAL WEATHER SERVICE DENVER/BOULDER CO
500 AM MST SUN NOV 23 2014

NOTE: "FAIR" INDICATES FEW OR NO CLOUDS BELOW 12000 FEET WITH NO
SIGNIFICANT WEATHER AND/OR OBSTRUCTIONS TO VISIBILITY.

COZ001>005-013-030-031-231300-
...NORTHWEST COLORADO...

CITY           SKY/WX    TMP DP  RH WIND       PRES   REMARKS
CRAIG          MOCLDY    23  18  81 CALM      29.84R
HAYDEN         MOCLDY    25  18  74 N5        29.83R WCI  19
MEEKER         PTCLDY    23  17  78 CALM      29.84R
MOUNT WERNER   NOT AVBL
STEAMBOAT SPGS CLOUDY    25  23  91 S5        29.81R WCI  19
WALDEN         MOCLDY    19  16  86 NW5       29.76S WCI  13
$$

COZ006>008-011-231300-
...WEST CENTRAL VALLEYS...

CITY           SKY/WX    TMP DP  RH WIND       PRES   REMARKS
GRAND JUNCTION MOCLDY    34  31  88 VRB6      29.85R WCI  29
MONTROSE       CLOUDY    34  31  88 N6        29.85S WCI  29
EAGLE          CLOUDY    30  28  93 CALM      29.81R
RIFLE          MOCLDY    31  27  85 SE3       29.84F
DELTA          MOCLDY    35  33  91 SW8       29.82R WCI  29
NUCLA          MOCLDY    32  30  93 NW9       29.88R WCI  24
$$

COZ017>023-064>068-231300-
...SOUTHWEST COLORADO...

CITY           SKY/WX    TMP DP  RH WIND       PRES   REMARKS
DURANGO        MOCLDY    33  26  75 NW8       29.75S WCI  26
CORTEZ         CLOUDY    38  28  67 N13       29.84R
PAGOSA SPRINGS LGT SNOW  31  30  98 CALM      29.75F
TELLURIDE      LGT SNOW  25  24  97 SW5       29.81F WCI  19
WOLF CREEK PAS SNOW      18  18 100 SW16      29.73F VSB 1/2 WCI   3
$$

COZ009-010-012-014-032>034-037-058>063-231300-
...CENTRAL COLORADO...

CITY           SKY/WX    TMP DP  RH WIND       PRES   REMARKS
ASPEN          LGT SNOW  26  22  84 VRB7      29.77R FOG     WCI  18
BUENA VISTA    CLOUDY    29  22  78 NW7       29.69S WCI  21
COPPER MTN     CLOUDY    18  10  73 W30       29.70S WCI  -2
BERTHOUD PASS  CLOUDY     9   5  85 NW24      29.69F WCI -12
COTTONWOOD PAS CLOUDY    30  10  43 W15       29.69S WCI  19
GUNNISON       CLOUDY    28  23  80 SW14      29.76S WCI  17
KREMMLING      CLOUDY    28  18  64 NW6       29.78S WCI  22
LEADVILLE      LGT SNOW  18  14  84 N20G26    29.70R FOG     WCI   2
MONARCH PASS   CLOUDY    18  14  86 MISG      29.81S
SALIDA         CLOUDY    32  28  84 NW3       29.77F
SUNLIGHT       CLOUDY    18  16  93 W9G17     29.79R WCI   6
WILKERSON PASS CLOUDY    19  10  68 NW10G16   29.70S WCI   8
$$

COZ069>075-231300-
...SAN LUIS VALLEY/SANGRE DE CRISTO MOUNTAINS...

CITY           SKY/WX    TMP DP  RH WIND       PRES   REMARKS
ALAMOSA        CLOUDY    21  15  78 W5        29.70S WCI  15
LA VETA PASS   FLURRIES  27  21  80 SW8       29.68S WCI  18
SAGUACHE       CLOUDY    30  23  74 NW21      29.69F WCI  17
$$

COZ035-036-038>040-231300-
...NORTHERN COLORADO FRONT RANGE...

CITY           SKY/WX    TMP DP  RH WIND       PRES   REMARKS
DENVER INTL AP FLURRIES  35  22  58 NE15      29.70R WCI  25
DMNS CITY PARK   N/A     37  19  48 NE17      29.70S
AURORA         MOCLDY    36  19  49 NE16G23   29.71R
FRONT RANGE AP CLOUDY    36  27  69 NE3       29.72R
ERIE MUNI ARPT CLOUDY    37  23  57 CALM      29.68R
BOULDER MUN AP CLOUDY    36  27  69 SE7       29.68R
CENTENNIAL     MOCLDY    35  22  58 NE12G22   29.70R WCI  27
BROOMFIELD     CLOUDY    36  25  64 E6        29.69R
FORT COLLINS   CLOUDY    37  19  48 N12       29.71R
LONGMONT       CLOUDY    39  27  62 W3        29.70R
$$

COZ041-046-047-076>085-087-088-231300-
...PIKES PEAK/PALMER DIVIDE AND SOUTHERN FOOTHILLS...

CITY           SKY/WX    TMP DP  RH WIND       PRES   REMARKS
COLO. SPRINGS  FLURRIES  35  28  75 N17       29.68R WCI  25
A. F. ACADEMY  LGT SNOW  32  30  93 N13       29.69R FOG     WCI  22
ELLICOTT       NOT AVBL
FALCON         NOT AVBL
FORT CARSON    LGT RAIN  37  29  72 N17G29    29.65R
LIMON          FLURRIES  33  29  85 N22G37    29.67S WCI  21
MONUMENT HILL  MIX PCPN  28  28 100 NE8       29.69R WCI  20
TRINIDAD       CLOUDY    42  23  46 W9        29.57S
$$

COZ042>045-048>051-090-091-231300-
...NORTHEAST COLORADO...

CITY           SKY/WX    TMP DP  RH WIND       PRES   REMARKS
GREELEY ARPT   CLOUDY    36  19  51 N12       29.72R
AKRON          CLOUDY    36  21  54 N18       29.67R
BURLINGTON     CLOUDY    43  30  60 N24G39    29.58R
WRAY           CLOUDY    42  23  46 NW21G32   29.62S
STERLING       CLOUDY    41  23  48 N13       29.68R
HOLYOKE        CLOUDY    41  21  45 N22G28    29.64S
FORT MORGAN    CLOUDY    36  19  51 N15       29.70R
$$

COZ086-089-092>099-231300-
...SOUTHEAST COLORADO...

CITY           SKY/WX    TMP DP  RH WIND       PRES   REMARKS
PUEBLO         CLOUDY    41  31  67 N29G39    29.64R
LA JUNTA       MOCLDY    45  27  49 N23G32    29.60R
LAMAR          MOCLDY    47  27  45 N15G28    29.55R
SPRINGFIELD      N/A     44  25  47 NW21G29   29.52R
$$


USA.gov is the U.S. government's official web portal to all federal, state and local government web resources and services.